Starlink 32124

operational
NORAD ID: 60298 Int'l Des: 2024-132 Owner: SPXS Country: US Constellation: starlink
LEOCIRCULAR

About Starlink 32124

Description loading...

Live Position

Loading 3D Globe...

Upcoming Passes

Altitude History

Altitude vs Time

uPlot chart will show altitude changes over time

Two-Line Element Set

1 60298U 24132W 25353.45944570 -.00000647 00000-0 -97230-5 0 9998
2 60298 53.1604 65.3175 0001185 86.3816 273.7320 15.30179976 79277
Epoch: Dec 19, 2025 • Age: 23 hours

Current Status

Altitude 475.7 km
Velocity 7.63 km/s
Sub-Earth Point 23.43°N, 11.52°W
Launch Date Jul 28, 2024
Age 1.3 years
Type internet

Technical Details

Classification Payload
Mass 730.00 kg
Dry Mass 700.00 kg
Total Mass 730.00 kg
Length 0.30 m
Diameter 4.10 m
Span 29.00 m
Shape Box + pan
Manufacturer SPXS
Bus Type Starlink V2M
Phase Status In Orbit
Owner/State SPXS/US

Large Constellations

Loading constellations...